Weather History for KOVE - February, 2014

Change the Weather History Date:

Sunday, February 16, 2014

  Actual Average Record
Temperature  
Mean Temperature 54 °F -  
Max Temperature 63 °F 60 °F 76 °F (1957)
Min Temperature 46 °F 40 °F 27 °F (1956)
Degree Days  
Heating Degree Days 10    
Growing Degree Days 4 (Base 50)    
Moisture  
Dew Point 45 °F    
Average Humidity 71    
Maximum Humidity 93    
Minimum Humidity 40    
Precipitation  
Precipitation 0.00 in - - ()
Sea Level Pressure  
Sea Level Pressure 30.13 in    
Wind  
Wind Speed 9 mph (SSE)    
Max Wind Speed 18 mph    
Max Gust Speed -    
Visibility 10 miles    
Events      
Averages and records for this station are not official NWS values.
T = Trace of Precipitation, MM = Missing Value Source: NWS Daily Summary

Daily Weather History Graph

Daily Weather History Graph

Search for Another Location

Airport or City:

Trip Planner

Search our weather history database for the weather conditions in past years. The results will help you decide how hot, cold, wet, or windy it might be!

Date:

Astronomy

Feb. 16, 2014 Rise Set
Actual Time 6:57 AM PST 5:44 PM PST
Civil Twilight 6:29 AM PST 6:11 PM PST
Nautical Twilight 5:58 AM PST 6:43 PM PST
Astronomical Twilight 5:27 AM PST 7:14 PM PST
Moon 7:45 PM PST (2/16) 7:30 AM PST (2/16)
Length of Visible Light 11h 42m
Length of Day
10h 47m
Full, 97% of the Moon is Illuminated
Feb 16
Full
Feb 22
Last Quarter
Mar 1
New
Mar 8
First Quarter
Mar 16
Full

Hourly Weather History & Observations

Time (PST) Temp. Dew Point Humidity Pressure Visibility Wind Dir Wind Speed Gust Speed Precip Events Conditions
12:07 AM 55.0 °F 52.0 °F 89% 29.98 in 10.0 mi SSE 18.4 mph - N/A   Mostly Cloudy
12:53 AM 55.0 °F 52.0 °F 89% 30.00 in 10.0 mi SSE 16.1 mph - N/A   Partly Cloudy
1:49 AM 55.4 °F 51.8 °F 88% 30.01 in 10.0 mi SSE 13.8 mph - N/A   Partly Cloudy
1:53 AM 55.0 °F 51.1 °F 86% 30.01 in 10.0 mi SSE 13.8 mph - N/A   Partly Cloudy
2:53 AM 54.0 °F 51.1 °F 90% 30.03 in 10.0 mi SE 9.2 mph - N/A   Scattered Clouds
3:53 AM 52.0 °F 50.0 °F 93% 30.05 in 10.0 mi ESE 6.9 mph - N/A   Clear
4:53 AM 52.0 °F 48.9 °F 89% 30.08 in 10.0 mi SSE 4.6 mph - N/A   Mostly Cloudy
5:53 AM 50.0 °F 45.0 °F 83% 30.09 in 10.0 mi SE 6.9 mph - N/A   Clear
6:53 AM 48.0 °F 44.1 °F 86% 30.13 in 10.0 mi SSE 4.6 mph - N/A   Clear
7:53 AM 50.0 °F 46.0 °F 86% 30.16 in 10.0 mi ESE 5.8 mph - N/A   Clear
8:53 AM 54.0 °F 46.0 °F 75% 30.20 in 10.0 mi East 4.6 mph - N/A   Clear
9:53 AM 57.0 °F 46.0 °F 67% 30.22 in 10.0 mi South 6.9 mph - N/A   Clear
10:53 AM 60.1 °F 45.0 °F 57% 30.22 in 10.0 mi SSE 6.9 mph - N/A   Clear
11:53 AM 63.0 °F 41.0 °F 45% 30.23 in 10.0 mi South 8.1 mph - N/A   Clear
12:53 PM 63.0 °F 39.0 °F 41% 30.21 in 10.0 mi SW 4.6 mph - N/A   Clear
1:53 PM 62.1 °F 41.0 °F 46% 30.20 in 10.0 mi Variable 4.6 mph - N/A   Clear
2:53 PM 63.0 °F 39.0 °F 41% 30.18 in 10.0 mi WNW 4.6 mph - N/A   Clear
3:53 PM 63.0 °F 37.9 °F 40% 30.16 in 10.0 mi Calm Calm - N/A   Clear
4:53 PM 61.0 °F 41.0 °F 48% 30.15 in 10.0 mi WNW 4.6 mph - N/A   Clear
5:53 PM 57.0 °F 41.0 °F 55% 30.15 in 10.0 mi WNW 3.5 mph - N/A   Clear
6:53 PM 53.1 °F 42.1 °F 66% 30.15 in 10.0 mi Calm Calm - N/A   Clear
7:53 PM 53.1 °F 41.0 °F 64% 30.15 in 10.0 mi NNE 3.5 mph - N/A   Clear
8:53 PM 48.9 °F 41.0 °F 74% 30.15 in 10.0 mi NNE 3.5 mph - N/A   Clear
9:53 PM 48.0 °F 42.1 °F 80% 30.17 in 10.0 mi NW 3.5 mph - N/A   Clear
10:53 PM 46.9 °F 41.0 °F 80% 30.14 in 10.0 mi East 5.8 mph - N/A   Clear
11:53 PM 46.9 °F 41.0 °F 80% 30.14 in 10.0 mi Calm Calm - N/A   Clear